FENGYUN 1C DEB

Satellite information

Favourite Embed

Satellite Type and Status

DEBRISIN ORBIT

Key statistics

Satellite FENGYUN 1C DEB at a glance.

Uptime

9664

Days in orbit

Revolutions

≈ 14.3

Per day

Orbit

SSO

Sun Synchronous Orbit

Inclination

98.4

Latest

Satellite identification and parameters

Extended collection of information and parameters for FENGYUN 1C DEB.

Object identification

Identified? True

Debris? True

Object name: FENGYUN 1C DEB

International designator: 1999-025AJC

Object number (NORAD): 30514

Object ID (CCSDS): 30514

Country: PEOPLES REPUBLIC OF CHINA (PRC)

Current information (Y/N): Y

RCS size: SMALL

Orbital parameters

Period: 100.411 minutes

Inclination: 98.4191 deg

SMA: 7156.159 km

Apoapsis: 901.873 km

Periapsis: 654.176 km

RAAN: 321.6848 deg

Eccentricy: 0.01730653

Argument of periapsis: 242.2375 deg

Mean anomaly: 116.1169 deg

Mean motion: 14.3411098 rev/day

Mean motion (dot): 0.0000221 rev/day2

B* drag term: 0.00068215988 1/REarth

Two-line elements (TLE)

Creation date: Oct. 24, 2025, 2:48 a.m.

Reference frame: TEME

Reference center: EARTH

Epoch: Oct. 23, 2025, 8:43 p.m. UTC

TLE line 0: 0 FENGYUN 1C DEB

TLE line 1: 1 30514U 99025AJC 25296.86323524 .00002210 00000-0 68216-3 0 9996

TLE line 2: 2 30514 98.4191 321.6848 0173065 242.2375 116.1169 14.34110980975104

Live tracking on map

Real-time ground track for satellite FENGYUN 1C DEB.

In-orbit conjunctions

A list of the most updated potential collisions computed for object FENGYUN 1C DEB.

Target Orbit TCA Probability of collision Miss distance Type
FENGYUN 1C DEB SSO 2025-06-16 13:46:28 0.0003982886 11.0 (m) DEBRIS
IRIDIUM 33 DEB LEO 2024-11-09 16:09:31 0.000106492 301.0 (m) DEBRIS

Associated space launch

Chinese polar orbiting meteorological satellite

FENGYUN 1C DEB was lifted into orbit during the mission ‘Long March 4B | Feng Yun 1C’, on board a Long March 4B space rocket.

The launch took place on May 10, 1999, 1:33 a.m. from Launch Complex 7.

For more information about the launch, click the button.

Launch to space Long March 4B | Feng Yun 1C
Long March 4B | Feng Yun 1C

Agency: N/A

Status: Launch Successful

Launch date: May 10, 1999, 1:33 a.m. UTC

Rocket: Long March 4B

Launch pad: Launch Complex 7

Location: Taiyuan Satellite Launch Center, People's Republic of China

...

Latest news about this satellite

There are no fresh news available about this satellite. Check back as we update our databases every day.


Newsletter sign-up

Weekly statistics, charts and insights to help you stay on top of the space industry.